Regional Weather Roundup
Issued by NWS Grand Forks, ND

Home | Current Version | Previous Version | Graphics & Text | Print | Product List | Glossary On
Versions: 1 2 3 4 5 6 7 8 9 10 11 12 13 14 15 16 17 18 19 20 21 22 23 24 25 26 27 28 29 30 31 32 33 34 35 36 37 38 39 40 41 42 43 44 45 46 47 48 49 50
000
ASUS43 KFGF 091731
RWRFGF
PRAIRIE TO PINES  WEATHER ROUNDUP
NATIONAL WEATHER SERVICE EASTERN NORTH DAKOTA/GRAND FORKS ND
1100 AM CST TUE FEB 09 2016

 **SATELLITE DATA USED TO AUGMENT SKY COVER AT AUTOMATED STATIONS**
 *****  WEATHER ACROSS EASTERN NORTH DAKOTA  *****

CITY           SKY/WX    TMP DP  RH WIND       PRES   REMARKS
GRAND FORKS    FLURRIES  12   4  70 N14       30.31S WCI  -3
GRAND FRKS AFB CLOUDY    11   2  70 N12       30.31S WCI  -4
DEVILS LAKE    CLOUDY    16   7  67 NE9       30.26S WCI   4
FARGO          CLOUDY    13   4  67 N15       30.30S WCI  -3
WAHPETON ARPT  CLOUDY    14   5  67 N14       30.29S WCI  -1
$$

 ***** WEATHER ACROSS CENTRAL AND WESTERN NORTH DAKOTA  *****

CITY           SKY/WX    TMP DP  RH WIND       PRES   REMARKS
BISMARCK       MOSUNNY   33  10  38 SW9       30.24F
MINOT          MOSUNNY   32  13  45 SW12      30.20S WCI  23
JAMESTOWN      CLOUDY    20   7  57 NE7       30.24S WCI  11
MINOT AFB      MOSUNNY   31  15  51 W2        30.20R
GARRISON         N/A     27  12  53 SW7       30.21S WCI  19
WILLISTON      CLOUDY    32  23  69 N8        30.23R WCI  25
DICKINSON      CLOUDY    34  22  61 NW14      30.16S WCI  25
HETTINGER      CLOUDY    33  20  58 NW5       30.20S
$$

 *****  OTHER AIRPORT OBSERVATIONS IN OUR AREA  *****

CITY           SKY/WX    TMP DP  RH WIND       PRES   REMARKS
WALHALLA       FAIR       9   5  85 N10       30.34S WCI  -6
GRAFTON AIRPOR PTSUNNY    9   3  78 N12       30.34S WCI  -6
VALLEY CITY AR CLOUDY    18   7  62 N8        30.28S WCI   7
CANDO          CLOUDY    16   7  67 NE7       30.28S WCI   6
CAVALIER APRT  CLOUDY     9   1  72 N13       30.33F WCI  -7
GWINNER        CLOUDY    21  10  63 N8        30.27F WCI  12
ROLLA          CLOUDY    16   7  67 E9        30.23F WCI   4
 ***** THE ABOVE OBSERVATIONS ARE NON NWS ARE NOT QUALITY
       CONTROLLED AND MAY MIS-REPORT RAIN FOR SNOW...
$$

  *****  WEATHER ACROSS NORTHERN MINNESOTA  *****

CITY           SKY/WX    TMP DP  RH WIND       PRES   REMARKS
FLAG ISLAND    MOSUNNY    1  -4  78 NW15      30.23S WCI -18
WARROAD        CLOUDY     0  -4  85 CALM      30.26R
ROSEAU         SUNNY      0  -8  71 CALM      30.27S
HALLOCK        CLOUDY     7   1  78 N10       30.32R WCI  -8
THF RVR FALLS    N/A      7   0  72 NW10      30.27  WCI  -8
BAUDETTE       PTSUNNY    2  -5  72 N14       30.21S WCI -16
WASKISH        SUNNY      3  -4  72 NW9       30.20F WCI -11
CROOKSTON      SUNNY      9   3  78 N12       30.31S WCI  -6
STEPHEN NDAWN    N/A      7   1  78 N14         N/A  WCI -10
GREENBUSH NDAW   N/A      3  -2  78 N12         N/A  WCI -13
$$
  *****  WEATHER ACROSS CENTRAL AND WEST MINNESOTA  *****

CITY           SKY/WX    TMP DP  RH WIND       PRES   REMARKS
FOSSTON        SUNNY      9  -2  61 NW12      30.24S WCI  -6
BEMIDJI        MOSUNNY    1  -6  75 N12       30.19F WCI -16
PARK RAPIDS    SUNNY      6  -3  66 N12       30.17S WCI  -9
ELBOW LAKE     CLOUDY     9   2  73 NW15G22   30.24S WCI  -7
WADENA         SUNNY      7   0  72 NW12      30.18F WCI  -9
DETROIT LAKES  SUNNY      9   3  78 N14       30.23S WCI  -8
MOORHEAD       SUNNY     10   5  79 N17       30.29F WCI  -7
FERGUS FALLS   CLOUDY    10   3  72 N14       30.28F WCI  -5
MORRIS MN      CLOUDY    12   5  73 NW21G26   30.22F WCI  -6
STAPLES        SUNNY      7  -2  66 NW16      30.17S WCI -11
$$
  *****  WEATHER ELSEWHERE ACROSS MINNESOTA  *****

CITY           SKY/WX    TMP DP  RH WIND       PRES   REMARKS
DULUTH         MOSUNNY    4  -6  63 N17       30.03R WCI -16
INTRNTL FALLS  SUNNY      0  -8  69 NW12      30.17S WCI -17
ELY            MOSUNNY    1  -4  78 NW8G20    30.04S WCI -12
CLOQUET        SUNNY      5  -6  61 NW14G20   30.06S WCI -12
WHEATON        CLOUDY    16   9  73 NW15      30.29S WCI   1
BRAINERD       SUNNY      5  -4  66 N16       30.16R WCI -14
HIBBING        SUNNY      1  -6  72 NW17      30.09R WCI -19
ALEXANDRIA     CLOUDY     9   0  67 N14G24    30.19R WCI  -7
SAINT CLOUD    SUNNY      9  -2  61 NW15G23   30.16R WCI  -8
MINNEAPOLIS    SUNNY     11  -1  58 NW20G26   30.13R WCI  -7
$$

  *****  WEATHER ACROSS SOUTH DAKOTA  *****

CITY           SKY/WX    TMP DP  RH WIND       PRES   REMARKS
SIOUX FALLS    CLOUDY    15   4  61 N13       30.24S WCI   1
BROOKINGS      NOT AVBL
WATERTOWN      CLOUDY    15   4  61 NW10      30.22S WCI   2
HURON          MOSUNNY   20  10  65 N6        30.30S WCI  12
SISSETON         N/A     16   7  67 N16       30.26R WCI   1
ABERDEEN       PTSUNNY   26  10  50 NW9       30.29S WCI  17
MITCHELL       PTSUNNY   22  13  68 NW10      30.32R WCI  11
PIERRE         PTSUNNY   27   8  44 SW7       30.29S WCI  19
MOBRIDGE       CLOUDY    28  11  48 SW10      30.23S WCI  19
RAPID CITY     CLOUDY    44  29  55 NE10      30.20R
$$

  *****  SOME WEATHER IN NEARBY STATES *****

CITY           SKY/WX    TMP DP  RH WIND       PRES   REMARKS
GLASGOW MT     MOSUNNY   36  28  73 SW3       30.22R
GREAT FALLS MT SUNNY     50  29  44 SW18      30.29S
CHEYENNE WY    SUNNY     43  22  43 NW17G30   30.31S
SCOTTSBLUFF NE PTSUNNY   43  27  53 NW14      30.27S
OMAHA NE       MOSUNNY   16   5  62 N23G30    30.28R WCI  -2
DES MOINES IA  MOSUNNY   13   3  64 NW20G26   30.15R WCI  -5
DAVENPORT IA   MOSUNNY   15   5  64 NW21      29.98R WCI  -2
CHICAGO IL     FLURRIES  17   9  70 NW14      29.83S WCI   3
EAU CLAIRE WI  SUNNY      7  -4  60 NW15      30.03R WCI -10
LA CROSSE WI   MOSUNNY   10  -1  61 NW20      30.03R WCI  -9
$$

  *****  SOME NATIONAL WEATHER *****

CITY           SKY/WX    TMP DP  RH WIND       PRES   REMARKS
LA GUARDIA NY  MOSUNNY   32  22  66 NE8G17    29.60F WCI  25
RALEIGH NC     PTSUNNY   41  28  60 W10       29.65F
ATLANTA GA     CLOUDY    36  19  50 W18G30    29.84F
NEW ORLEANS LA MOSUNNY   52  16  24 W20       30.19F
OKLAHOMA CITY  MOSUNNY   47  18  31 N16       30.29R
ALBUQUERQUE NM SUNNY     45  21  38 N10       30.44S
SALT LAKE CITY SUNNY     31  24  75 S5        30.60S HAZE
LOS ANGELES CA SUNNY     75  30  19 N5        30.17R
BOISE ID       CLOUDY    30  25  81 SE9       30.60S WCI  22
SEATTLE WA     FOG       43  42  97 S3        30.20R VSB 1/8
$$

*** WEATHER ACROSS MANITOBA...SASKATCHEWAN AND ONTARIO ***
                ***ONTARIO***

CITY           SKY/WX    TMP DP  RH WIND       PRES   REMARKS
GERALDTON      FLURRIES  -2  -9  71 N15G21    29.92S WCI -22
THUNDER BAY    MOSUNNY    5  -6  61 NW12G25   30.02S WCI -11
SIOUX LOOKOUT  FLURRIES  -4 -11  71 NW9       30.12R WCI -20
TORONTO        LGT SNOW  30  27  86 E5        29.50F
BIG TROUT LK   FLURRIES -15 -24  64 NW9       30.21R WCI -33
PICKLE LAKE    CRYSTALS  -8 -18  59 VRB7      30.08S WCI -22
DRYDEN         PTSUNNY   -4 -11  71 NW8       30.13S WCI -19
KENORA         MOSUNNY   -2  -9  71 N12       30.19S WCI -20
$$
                *** MANITOBA***

CITY           SKY/WX    TMP DP  RH WIND       PRES   REMARKS
BRANDON        FLURRIES  12   7  79 E13       30.29R WCI  -3
DAUPHIN        FLURRIES   7   1  78 E9        30.36S WCI  -7
ISLAND LAKE    MOSUNNY  -18 -26  69 W8        30.37S WCI -37
PILOT MOUND      N/A      9   5  85 NE9         N/A  WCI  -5
THE PAS        MOSUNNY  -11 -17  77 CALM      30.42
THOMPSON       SUNNY    -20 -27  69 N2        30.43S
WINNIPEG       MOSUNNY    1  -6  71 N13       30.36R WCI -16
LYNN LAKE      CLOUDY   -18 -24  76 VRB2      30.36F
CHURCHILL      CRYSTALS -27 -35  68 W10       30.46S WCI -50
GILLAM         MOSUNNY  -24 -31  69 W9        30.42F WCI -45
$$
                ***SASKATCHEWAN***

CITY           SKY/WX    TMP DP  RH WIND       PRES   REMARKS
ESTEVAN        CLOUDY    28  21  74 N3        30.20F
KINDERSLEY     MOSUNNY   32  27  80 SW7       30.12S
LLOYDMINSTER   PTSUNNY   32  28  86 W9        30.06F WCI  24
PRINCE ALBERT  LGT SNOW  12   7  79 SE9       30.24F DRFTSNOWWCI   0
REGINA         FLURRIES  27  21  80 VRB2      30.21R
YORKTON        MOSUNNY   16  10  79 N7        30.26R WCI   6
N. BATTLEFORD  CLOUDY    27  25  93 SE14      30.14F WCI  15
LA RONGE       PTSUNNY    1  -4  78 NE6       30.26F WCI -10
SASKATOON      SNOWSHWR  27  23  86 SE10      30.18F WCI  17
SWIFT CURRENT  MOSUNNY   37  30  75 SW8       30.13F
$$
NOTE: THESE ARE AUTOMATED STATIONS WITH LIMITED QUALITY CONTROL
      "FAIR" INDICATES FEW OR NO CLOUDS BELOW 12,000 FEET WITH NO
      SIGNIFICANT WEATHER AND/OR OBSTRUCTIONS TO VISIBILITY.
      SKY/WX - SKY CONDITION AND SIGNIFICANT WEATHER.
      TMP - AIR TEMPERATURE.    DP   - DEWPOINT TEMPERATURE.
      RH  - RELATIVE HUMIDITY.  PRES - PRESSURE.
      HX  - HEAT INDEX.         WCI  - WIND CHILL INDEX.
$



USA.gov is the U.S. government's official web portal to all federal, state and local government web resources and services.